[[{"header":{"parameterUnit":"m.s-1","parameterCategory":1,"la1":30.2991,"la2":30.254,"lo1":-89.0895,"lo2":-89.0444,"dy":0.0017,"dx":0.0017,"nx":28,"ny":28,"refTime":"2025-06-18T21:00:00:Z","depth":0,"parameterNumber":2,"parameterNumberName":"U-component_of_WINDS"},"data":[0,0,0,0,0,0,0,0,0,0,0,0,0,0,0,0,0,0,0,0,0,0,0,0,0,0,0,0,0,0,0,0,0,0,0,0,0,0,0,0,0,0,0,0,0,0,0,0,0,0,0,0,0,0,0,0,0,0,0.4508,0.4509,0,0.4573,0.4574,0.4575,0.4625,0.4626,0.4626,0.4627,0.4697,0.4698,0.4699,0,0,0,0,0,0,0,0,0,0,0,0,0,0.4431,0.4433,0.4508,0.4509,0.451,0.4573,0.4574,0.4575,0.4625,0.4626,0.4626,0.4627,0.4696,0.4698,0.47,0,0,0,0,0,0,0,0,0,0,0,0,0,0.4477,0.4433,0.4508,0.4542,0.4546,0.4573,0.4574,0.4575,0.4625,0.4626,0.4627,0.4627,0.4696,0.4698,0.47,0.4698,0,0,0.4706,0.4707,0,0,0,0,0,0,0,0,0.4475,0.448,0.4537,0.454,0.4544,0.4592,0.4573,0.4617,0.4625,0.4595,0.4627,0.4628,0.4661,0.4666,0.4677,0.4702,0.4705,0.4706,0.4708,0.4709,0.4709,0,0,0,0,0,0,0,0.4472,0.4478,0.4534,0.4537,0.4542,0.4556,0.4563,0.4581,0.4624,0.4598,0.4602,0.4609,0.4664,0.4675,0.4679,0.4706,0.4706,0.4708,0.471,0.471,0.4734,0.4733,0,0,0,0,0,0,0.4462,0.4475,0.4532,0.4536,0.4511,0.4557,0.4565,0.4576,0.4624,0.4631,0.4608,0.4611,0.4671,0.4677,0.4682,0.4684,0.4709,0.4711,0.4712,0.4735,0.4734,0.4733,0,0,0,0,0,0,0.4461,0.4467,0.4529,0.4506,0.4515,0.4557,0.4569,0.4577,0.4588,0.4631,0.4639,0.4611,0.4672,0.4679,0.4694,0.4687,0.4712,0.4714,0.4735,0.4734,0.4733,0.4687,0,0,0,0,0,0,0.4458,0.4466,0.4465,0.4506,0.4516,0.4539,0.4569,0.4578,0.4591,0.4595,0.4636,0.4644,0.4673,0.4691,0.4696,0.469,0.4715,0.4736,0.4735,0.4734,0.4689,0.4684,0.468,0,0,0,0,0,0.4455,0.445,0.4464,0.4471,0.4516,0.4538,0.4544,0.4577,0.459,0.459,0.4618,0.4643,0.4687,0.4692,0.4698,0.4693,0.4737,0.4735,0.4734,0.4691,0.4685,0.468,0,0,0,0,0,0,0.4407,0.4455,0.4473,0.448,0.4504,0.4547,0.4547,0.457,0.4592,0.4595,0.4635,0.4644,0.4655,0.4676,0.468,0.4695,0.4715,0.4715,0.468,0.4675,0.4671,0.4665,0.4717,0,0,0,0,0,0.4397,0.441,0.4453,0.4455,0.4467,0.4505,0.4516,0.4539,0.4566,0.4577,0.4606,0.4633,0.4653,0.4666,0.4687,0.4693,0.4703,0.4693,0.4688,0.4684,0.4683,0.4689,0.4685,0.4728,0.4728,0.4728,0,0,0.4377,0.4405,0.4411,0.4446,0.4468,0.4482,0.4513,0.4526,0.4537,0.458,0.4595,0.4618,0.4651,0.4661,0.4668,0.4679,0.4674,0.4682,0.4679,0.468,0.4687,0.4683,0.4679,0.4727,0.4728,0.4728,0,0,0.4347,0.437,0.4374,0.4395,0.4428,0.4454,0.4455,0.4494,0.451,0.4527,0.4559,0.4574,0.4607,0.4629,0.4645,0.4625,0.4649,0.4631,0.4607,0.4612,0.4609,0.4606,0.4599,0.4596,0.4631,0.463,0.463,0,0.4318,0.4339,0.4374,0.4385,0.44,0.4439,0.4444,0.4464,0.4502,0.4512,0.4524,0.4567,0.4592,0.4609,0.4604,0.4616,0.4619,0.4626,0.4606,0.4604,0.4602,0.4595,0.4593,0.4628,0.4628,0.4629,0.4629,0,0.4301,0.4316,0.4316,0.4351,0.4366,0.4374,0.4412,0.4423,0.4446,0.4471,0.4488,0.4519,0.4547,0.4553,0.4575,0.4574,0.4579,0.4599,0.462,0.4595,0.4589,0.4587,0.4625,0.4625,0.4626,0.4627,0,0,0.4241,0.4296,0.4295,0.4312,0.4351,0.4364,0.4375,0.4402,0.4411,0.4437,0.4447,0.4476,0.4494,0.4512,0.4537,0.4542,0.4524,0.4561,0.4562,0.4552,0.4524,0.4508,0.4505,0.4541,0.454,0.454,0.4521,0,0.4216,0.4236,0.4269,0.4279,0.4294,0.4332,0.4342,0.4368,0.4392,0.4409,0.4437,0.4456,0.4478,0.4489,0.4496,0.4525,0.4519,0.4527,0.4551,0.4552,0.454,0.4502,0.4485,0.4466,0.4519,0.4519,0.4519,0,0.4189,0.4212,0.4223,0.4263,0.427,0.4278,0.4306,0.4321,0.4353,0.437,0.439,0.4418,0.4434,0.4454,0.4476,0.448,0.4493,0.4509,0.4509,0.4512,0.4533,0.4503,0.446,0.4457,0.4516,0.4516,0.4516,0,0.4143,0.4177,0.4188,0.4201,0.4248,0.4253,0.4273,0.4305,0.4319,0.4344,0.4354,0.4381,0.4395,0.4416,0.4451,0.4463,0.447,0.4493,0.4485,0.4484,0.4483,0.4482,0.4441,0.4493,0.4493,0.4493,0.4493,0,0.4111,0.4116,0.4168,0.4174,0.4182,0.4221,0.4228,0.4252,0.428,0.4293,0.4329,0.4341,0.4387,0.4405,0.4433,0.4447,0.4453,0.4468,0.4475,0.4464,0.4462,0.4472,0.4474,0.4493,0.4493,0.4493,0.4493,0,0.4059,0.4094,0.4109,0.4152,0.4163,0.4167,0.4205,0.4214,0.4241,0.4257,0.4263,0.4306,0.4328,0.4366,0.44,0.4419,0.4427,0.444,0.4416,0.442,0.441,0.441,0.4372,0.4369,0.4424,0.4424,0.4423,0,0.4036,0.4041,0.4085,0.4096,0.4114,0.4131,0.4146,0.4186,0.42,0.4237,0.4241,0.4267,0.4289,0.4324,0.4359,0.4385,0.4398,0.4384,0.4403,0.4391,0.4397,0.4396,0.4396,0.4378,0.4378,0.4377,0.4376,0,0.399,0.4007,0.4027,0.4053,0.4069,0.4092,0.4116,0.4124,0.4169,0.4184,0.4207,0.4224,0.4259,0.4284,0.4316,0.4338,0.4365,0.4371,0.437,0.4358,0.4343,0.435,0.4403,0.4371,0.4371,0.4372,0.4372,0.4372,0.3951,0.3957,0.3989,0.401,0.4033,0.4056,0.4066,0.4095,0.4114,0.4145,0.4168,0.419,0.4223,0.4268,0.4289,0.4308,0.432,0.4319,0.4319,0.4318,0.4313,0.4341,0.4314,0.4314,0.4314,0.4315,0.4315,0,0.3906,0.3929,0.3948,0.3981,0.3998,0.4022,0.4051,0.4064,0.4082,0.4111,0.4132,0.4159,0.4184,0.4222,0.425,0.4258,0.4271,0.4264,0.4263,0.4267,0.4301,0.4298,0.4253,0.4253,0.4253,0.4253,0.4253,0.4253,0.3885,0.3897,0.3918,0.3942,0.3966,0.3987,0.4001,0.4023,0.4046,0.4074,0.4095,0.4119,0.4152,0.4183,0.4207,0.4218,0.4226,0.4215,0.4229,0.4259,0.4265,0.427,0.4268,0.4217,0.4217,0.4194,0.4194,0.4193]},{"header":{"parameterUnit":"m.s-1","parameterCategory":1,"la1":30.2991,"la2":30.254,"lo1":-89.0895,"lo2":-89.0444,"dy":0.0017,"dx":0.0017,"nx":28,"ny":28,"refTime":"2025-06-18T21:00:00:Z","depth":0,"parameterNumber":3,"parameterNumberName":"V-component_of_WINDS"},"data":[0,0,0,0,0,0,0,0,0,0,0,0,0,0,0,0,0,0,0,0,0,0,0,0,0,0,0,0,0,0,0,0,0,0,0,0,0,0,0,0,0,0,0,0,0,0,0,0,0,0,0,0,0,0,0,0,0,0,4.2598,4.2599,0,4.2662,4.2662,4.2663,4.2674,4.2673,4.2673,4.2672,4.2731,4.2733,4.2735,0,0,0,0,0,0,0,0,0,0,0,0,0,4.2475,4.2478,4.2598,4.2599,4.2599,4.2662,4.2662,4.2663,4.2674,4.2673,4.2673,4.2672,4.273,4.2732,4.2735,0,0,0,0,0,0,0,0,0,0,0,0,0,4.2533,4.2478,4.2598,4.2612,4.2614,4.2661,4.2662,4.2664,4.2674,4.2673,4.2672,4.2672,4.2729,4.2732,4.2735,4.277,0,0,4.2745,4.2746,0,0,0,0,0,0,0,0,4.2529,4.2537,4.2609,4.2611,4.2614,4.2659,4.2641,4.2699,4.2674,4.2651,4.2672,4.2671,4.2707,4.2712,4.2725,4.2773,4.2775,4.2745,4.2747,4.2748,4.2749,0,0,0,0,0,0,0,4.2525,4.2534,4.2623,4.261,4.2613,4.2612,4.262,4.2652,4.2682,4.2653,4.2654,4.2662,4.2708,4.2722,4.2727,4.2776,4.2745,4.2748,4.2749,4.2751,4.285,4.2851,0,0,0,0,0,0,4.252,4.2531,4.2621,4.2625,4.2569,4.2615,4.2624,4.2645,4.2682,4.2687,4.2662,4.2662,4.2718,4.2723,4.2729,4.2769,4.2748,4.2751,4.2753,4.285,4.2851,4.2852,0,0,0,0,0,0,4.2517,4.2528,4.2618,4.2578,4.259,4.2618,4.2643,4.2647,4.2661,4.2689,4.2694,4.2672,4.2717,4.2725,4.2759,4.2772,4.2752,4.2755,4.2849,4.285,4.2851,4.2852,0,0,0,0,0,0,4.2514,4.2527,4.2543,4.2579,4.2592,4.265,4.2644,4.2649,4.2668,4.2668,4.27,4.2704,4.2717,4.2755,4.2762,4.2776,4.2758,4.2848,4.2849,4.2851,4.2851,4.2853,4.2855,0,0,0,0,0,4.2509,4.254,4.2544,4.2555,4.2613,4.2651,4.2658,4.2675,4.2669,4.2683,4.27,4.2703,4.2769,4.2758,4.2767,4.2781,4.2847,4.2849,4.2851,4.285,4.2853,4.2855,0,0,0,0,0,0,4.2504,4.2545,4.255,4.2594,4.2619,4.2653,4.2672,4.2678,4.2703,4.2702,4.2719,4.2726,4.2759,4.2774,4.276,4.2814,4.2807,4.2811,4.2804,4.2807,4.2809,4.2804,4.276,0,0,0,0,0,4.2508,4.2539,4.2572,4.2607,4.262,4.2644,4.2661,4.2671,4.2697,4.2707,4.2727,4.275,4.2775,4.2792,4.2817,4.2853,4.2858,4.2867,4.2869,4.2871,4.2873,4.2889,4.2893,4.2857,4.2857,4.2857,0,0,4.2517,4.2543,4.2561,4.2607,4.2628,4.2655,4.2653,4.2683,4.2702,4.2711,4.2745,4.276,4.2786,4.2821,4.2837,4.2834,4.2884,4.2873,4.2874,4.2876,4.2892,4.2895,4.2898,4.2859,4.2858,4.2858,0,0,4.2546,4.2571,4.2601,4.2622,4.2653,4.2669,4.2676,4.2708,4.2719,4.2754,4.2759,4.2781,4.2826,4.2843,4.2858,4.289,4.2892,4.2897,4.2907,4.2923,4.2926,4.2928,4.2937,4.294,4.29,4.29,4.29,0,4.2552,4.2597,4.2616,4.2645,4.2663,4.2673,4.2701,4.272,4.2757,4.2768,4.2764,4.2818,4.2837,4.2874,4.2881,4.2894,4.29,4.2894,4.2924,4.2927,4.293,4.2938,4.2941,4.29,4.29,4.29,4.29,0,4.2601,4.2631,4.2651,4.2688,4.2709,4.2737,4.2757,4.2774,4.2782,4.2796,4.2828,4.2851,4.2879,4.2889,4.2896,4.2926,4.2923,4.2922,4.2914,4.2933,4.2941,4.2944,4.2901,4.2901,4.29,4.29,0,0,4.263,4.2675,4.2682,4.2697,4.2731,4.2754,4.2781,4.281,4.2823,4.2848,4.2868,4.2904,4.2903,4.2919,4.2928,4.2942,4.2962,4.2939,4.294,4.2941,4.2992,4.2992,4.2996,4.2964,4.2965,4.2965,4.2989,0,4.2661,4.2713,4.2729,4.277,4.2796,4.2804,4.2827,4.2849,4.2862,4.2883,4.2897,4.2921,4.2919,4.2928,4.2943,4.2957,4.2972,4.2955,4.2981,4.2981,4.2973,4.3,4.3001,4.3022,4.2993,4.2993,4.2994,0,4.2706,4.2731,4.2776,4.2804,4.2815,4.2836,4.2862,4.2884,4.2906,4.2914,4.2932,4.2939,4.2963,4.2955,4.2988,4.2976,4.2986,4.2994,4.2996,4.2998,4.2988,4.3001,4.303,4.3032,4.2999,4.2999,4.2999,0,4.2719,4.2765,4.2796,4.2809,4.2843,4.2857,4.2871,4.2894,4.2909,4.2931,4.294,4.2964,4.2977,4.2993,4.3005,4.2999,4.3035,4.3029,4.304,4.304,4.3047,4.3047,4.3077,4.3057,4.3057,4.3057,4.3057,0,4.2751,4.2777,4.2802,4.2822,4.285,4.2866,4.2892,4.2906,4.2926,4.2945,4.2953,4.2971,4.2987,4.3005,4.3015,4.3038,4.3044,4.3049,4.3051,4.3048,4.3047,4.3055,4.3053,4.3058,4.3057,4.3057,4.3057,0,4.277,4.2789,4.2824,4.2852,4.286,4.2879,4.2902,4.2919,4.2932,4.2957,4.2963,4.2982,4.3005,4.3018,4.3047,4.3052,4.3078,4.308,4.3071,4.3071,4.3081,4.3079,4.3116,4.3121,4.3099,4.3099,4.3099,0,4.2789,4.281,4.284,4.2855,4.2869,4.2893,4.2909,4.2924,4.2939,4.2965,4.2978,4.3001,4.302,4.3055,4.307,4.309,4.3092,4.3103,4.3095,4.309,4.3089,4.3088,4.3088,4.3104,4.3104,4.3105,4.3105,0,4.2819,4.2827,4.2851,4.2876,4.2895,4.2915,4.2936,4.2946,4.2964,4.298,4.3004,4.3019,4.3047,4.3069,4.3091,4.3102,4.3105,4.3107,4.3111,4.3107,4.31,4.3102,4.3073,4.3106,4.3106,4.3106,4.3106,4.3106,4.2838,4.2855,4.2878,4.2903,4.292,4.2938,4.2955,4.297,4.299,4.3016,4.3023,4.3046,4.3065,4.3095,4.3106,4.3123,4.3121,4.3127,4.3128,4.3129,4.3128,4.3098,4.3127,4.3127,4.3127,4.3127,4.3127,0,4.2866,4.2881,4.2904,4.2932,4.2951,4.2954,4.2976,4.299,4.3012,4.303,4.3048,4.3074,4.3094,4.311,4.313,4.314,4.3142,4.3145,4.3144,4.3146,4.3129,4.3124,4.3143,4.3143,4.3143,4.3143,4.3143,4.3143,4.2883,4.2911,4.2921,4.2956,4.2971,4.2995,4.3007,4.3023,4.3037,4.3065,4.3083,4.3094,4.311,4.3131,4.3149,4.3153,4.3159,4.3161,4.3165,4.3149,4.3147,4.3146,4.314,4.3163,4.3163,4.318,4.318,4.318]}]]